1500667200.82,34283,23.81,74298.0,6.51,-24.57,-24.77,0,*73
1500667202.05,34284,23.81,74298.3,6.49,-24.61,-24.83,0,*73
1500667203.31,34285,23.75,74298.5,6.51,-24.51,-24.87,0,*7C
1500667204.51,34286,23.75,74298.8,6.49,-24.61,-24.97,0,*74
1500667205.73,34287,23.75,74298.5,6.49,-24.67,-24.93,0,*77
1500667206.96,34288,23.75,74296.3,6.49,-24.67,-24.97,0,*7C
1500667208.19,34289,23.81,74296.0,6.51,-24.57,-24.77,0,*79
1500667209.41,34290,23.75,74296.0,6.51,-24.57,-24.93,0,*7B
1500667210.64,34291,23.81,74300.3,6.51,-24.57,-24.77,0,*70
1500667211.9,34292,23.75,74298.0,6.51,-24.41,-24.77,0,*74
1500667213.16,34293,23.81,74300.8,6.51,-24.77,-25.03,0,*72
1500667214.38,34294,23.81,74300.0,6.53,-24.61,-24.93,0,*78
1500667215.61,34295,23.75,74298.8,6.53,-24.61,-24.93,0,*79
1500667216.87,34296,23.75,74298.3,6.57,-24.51,-24.83,0,*7C
1500667218.1,34297,23.81,74298.8,6.53,-24.51,-24.77,0,*72
1500667219.32,34298,23.75,74296.5,6.53,-24.61,-24.93,0,*74
1500667220.58,34299,23.81,74298.3,6.57,-24.51,-24.83,0,*73
1500667221.84,34300,23.75,74298.8,6.57,-24.51,-24.83,0,*72
1500667223.1,34301,23.75,74296.8,6.57,-24.51,-24.87,0,*77
1500667224.34,34302,23.81,74296.8,6.53,-24.51,-24.77,0,*7F
1500667225.6,34303,23.81,74300.0,6.57,-24.47,-24.71,0,*7B
1500667226.86,34304,23.81,74300.3,6.57,-24.35,-24.83,0,*74
1500667228.11,34305,23.81,74300.8,6.57,-24.47,-24.83,0,*70
1500667229.37,34306,23.81,74300.8,6.57,-24.51,-24.83,0,*74
1500667230.61,34307,23.75,74296.0,6.59,-24.41,-24.77,0,*71
1500667231.85,34308,23.81,74298.3,6.59,-24.41,-24.77,0,*7E
1500667233.08,34309,23.75,74298.3,6.59,-24.51,-24.67,0,*7F
1500667234.29,34310,23.75,74296.5,6.59,-24.47,-24.77,0,*71
1500667235.53,34311,23.81,74298.0,6.59,-24.47,-24.83,0,*7B
1500667236.79,34312,23.81,74300.0,6.61,-24.47,-24.83,0,*73
1500667238.02,34313,23.81,74302.3,6.59,-24.51,-24.83,0,*7E
1500667239.26,34314,23.75,74298.8,6.59,-24.51,-24.83,0,*79
1500667240.52,34315,23.75,74296.3,6.61,-24.47,-24.83,0,*74
1500667241.78,34316,23.81,74298.8,6.61,-24.51,-24.83,0,*70
1500667243.03,34317,23.81,74298.8,6.61,-24.51,-24.83,0,*71
1500667244.27,34318,23.75,74296.8,6.61,-24.51,-24.93,0,*7F
1500667245.49,34319,23.75,74296.8,6.61,-24.61,-24.93,0,*7D
1500667246.75,34320,23.81,74302.3,6.63,-24.71,-24.87,0,*71
1500667247.99,34321,23.75,74298.8,6.63,-24.47,-24.87,0,*75
1500667249.22,34322,23.75,74296.5,6.63,-24.57,-24.87,0,*77
1500667250.44,34323,23.75,74296.5,6.63,-24.61,-24.87,0,*73
1500667251.69,34324,23.75,74298.5,6.61,-24.67,-24.93,0,*75
1500667252.95,34325,23.75,74294.5,6.61,-24.83,-25.09,0,*7C
1500667254.2,34326,23.75,74298.8,6.61,-24.67,-24.97,0,*73
1500667255.44,34327,23.75,74296.8,6.63,-24.71,-24.93,0,*73
1500667256.66,34328,23.75,74296.5,6.65,-24.77,-24.93,0,*7C
1500667257.93,34329,23.75,74298.0,6.63,-24.71,-25.03,0,*75
1500667259.18,34330,23.75,74298.5,6.65,-24.77,-25.03,0,*7D
1500667260.4,34331,23.75,74296.5,6.65,-24.77,-24.93,0,*74
1500667261.63,34332,23.75,74298.3,6.63,-24.77,-25.03,0,*79
1500667262.86,34333,23.75,74296.5,6.63,-24.87,-25.09,0,*7D
1500667264.09,34334,23.75,74298.0,6.63,-24.87,-25.09,0,*7A
1500667265.32,34335,23.81,74298.5,6.63,-24.87,-25.09,0,*7B
1500667266.51,34336,23.81,74298.0,6.63,-24.93,-25.19,0,*7C
1500667267.73,34337,23.81,74300.5,6.63,-24.87,-24.93,0,*7B
1500667268.97,34338,23.75,74294.8,6.67,-24.71,-24.97,0,*7D
1500667270.16,34339,23.75,74296.3,6.63,-24.93,-25.19,0,*73
1500667271.41,34340,23.75,74296.0,6.65,-25.03,-25.19,0,*73
1500667272.63,34341,23.75,74296.0,6.65,-24.93,-25.19,0,*7A
1500667273.85,34342,23.81,74298.8,6.63,-25.03,-25.23,0,*7E
1500667275.05,34343,23.75,74298.0,6.63,-24.93,-25.09,0,*7F
1500667276.28,34344,23.75,74296.3,6.63,-24.87,-25.09,0,*7D
1500667277.5,34345,23.75,74298.5,6.63,-24.87,-25.19,0,*7D
1500667278.76,34346,23.75,74296.5,6.65,-24.87,-25.09,0,*79
1500667279.95,34347,23.75,74296.3,6.63,-24.93,-25.09,0,*7B
1500667281.2,34348,23.75,74298.0,6.65,-24.87,-25.19,0,*76
1500667282.43,34349,23.75,74294.8,6.67,-24.67,-24.97,0,*7C
1500667283.68,34350,23.75,74296.0,6.65,-25.03,-25.09,0,*73
1500667284.93,34351,23.81,74298.8,6.65,-24.87,-25.19,0,*7E
1500667286.18,34352,23.75,74298.3,6.65,-24.87,-25.19,0,*7D
1500667287.43,34353,23.81,74300.0,6.65,-25.03,-25.19,0,*71
1500667288.65,34354,23.75,74296.5,6.65,-24.93,-25.09,0,*7F
1500667289.86,34355,23.75,74298.0,6.65,-24.93,-25.19,0,*7F
1500667291.09,34356,23.75,74296.5,6.63,-24.87,-25.19,0,*7F
1500667292.32,34357,23.81,74300.0,6.65,-24.77,-25.09,0,*76
1500667293.53,34358,23.81,74298.8,6.65,-24.93,-25.19,0,*72
1500667294.78,34359,23.75,74296.3,6.65,-25.03,-25.23,0,*72
1500667296.03,34360,23.75,74296.0,6.65,-25.03,-25.19,0,*71
1500667297.25,34361,23.75,74296.3,6.65,-24.93,-25.19,0,*78
1500667298.5,34362,23.81,74298.8,6.65,-24.87,-25.19,0,*7E
1500667299.74,34363,23.75,74298.8,6.65,-25.03,-25.19,0,*72
1500667301.0,34364,23.75,74294.8,6.65,-24.87,-25.09,0,*79
1500667302.25,34365,23.75,74296.5,6.65,-24.77,-25.03,0,*7D
1500667303.47,34366,23.75,74296.3,6.69,-24.93,-25.13,0,*79
1500667304.7,34367,23.75,74296.3,6.67,-24.83,-24.97,0,*7A
1500667305.94,34368,23.75,74296.3,6.67,-24.71,-24.97,0,*78
1500667307.17,34369,23.75,74294.3,6.67,-24.71,-24.97,0,*79
1500667308.41,34370,23.75,74298.0,6.67,-24.71,-24.97,0,*71
1500667309.67,34371,23.75,74292.0,6.67,-24.83,-25.03,0,*71
1500667310.9,34372,23.75,74296.5,6.67,-24.83,-24.97,0,*7E
1500667312.13,34373,23.75,74296.3,6.69,-24.61,-24.93,0,*79
1500667313.38,34374,23.81,74300.3,6.69,-24.61,-24.83,0,*7F
1500667314.6,34375,23.75,74298.5,6.67,-24.67,-24.97,0,*73
1500667315.86,34376,23.75,74292.5,6.67,-24.87,-25.03,0,*72
1500667317.09,34377,23.75,74292.8,6.69,-24.77,-25.09,0,*78
1500667318.32,34378,23.75,74296.5,6.67,-24.87,-25.13,0,*7D
1500667319.57,34379,23.75,74294.8,6.69,-24.83,-24.97,0,*7B
1500667320.79,34380,23.75,74298.5,6.69,-24.77,-24.97,0,*76
1500667322.07,34381,23.75,74296.0,6.69,-24.67,-25.03,0,*7A
1500667323.29,34382,23.75,74296.5,6.69,-24.77,-24.97,0,*74
1500667324.52,34383,23.75,74298.0,6.69,-24.77,-25.09,0,*73
1500667325.78,34384,23.75,74294.5,6.67,-24.83,-25.03,0,*7B
1500667327.03,34385,23.75,74298.0,6.69,-24.67,-24.93,0,*76
1500667328.28,34386,23.75,74298.5,6.69,-24.61,-24.83,0,*72
1500667329.53,34387,23.75,74298.5,6.69,-24.61,-24.83,0,*73
1500667330.76,34388,23.75,74298.8,6.71,-24.51,-24.67,0,*7C
1500667332.01,34389,23.75,74298.0,6.69,-24.51,-24.67,0,*74
1500667333.24,34390,23.75,74298.3,6.73,-24.31,-24.61,0,*77
1500667334.47,34391,23.75,74298.8,6.71,-24.35,-24.67,0,*76
1500667335.67,34392,23.75,74298.0,6.71,-24.35,-24.77,0,*74
1500667336.93,34393,23.75,74298.5,6.73,-24.47,-24.71,0,*74
1500667338.16,34394,23.75,74298.8,6.71,-24.35,-24.67,0,*73
1500667339.39,34395,23.75,74298.5,6.73,-24.31,-24.57,0,*77
1500667340.62,34396,23.75,74296.3,6.73,-24.31,-24.57,0,*74
1500667341.85,34397,23.75,74298.5,6.75,-24.47,-24.71,0,*76
1500667343.08,34398,23.75,74298.0,6.75,-24.25,-24.57,0,*79
1500667344.32,34399,23.75,74296.3,6.75,-24.25,-24.47,0,*79
1500667345.56,34400,23.75,74298.8,6.79,-24.15,-24.41,0,*77
1500667346.79,34401,23.75,74294.5,6.75,-24.21,-24.31,0,*7A
1500667348.03,34402,23.75,74298.5,6.79,-24.15,-24.41,0,*75
1500667349.31,34403,23.75,74294.0,6.81,-24.11,-24.21,0,*71
1500667350.59,34404,23.75,74298.5,6.81,-24.11,-24.21,0,*76
1500667351.87,34405,23.75,74296.0,6.81,-24.11,-24.21,0,*77
1500667353.09,34406,23.75,74298.8,6.83,-24.11,-24.35,0,*73
1500667354.32,34407,23.75,74292.8,6.83,-24.11,-24.47,0,*77
1500667355.54,34408,23.75,74296.5,6.83,-24.15,-24.35,0,*79
1500667356.78,34409,23.75,74298.0,6.81,-24.15,-24.35,0,*7A
1500667358.0,34410,23.75,74294.5,6.83,-24.15,-24.47,0,*75
1500667359.22,34411,23.75,74296.8,6.83,-24.15,-24.35,0,*71
1500667360.45,34412,23.75,74298.5,6.83,-24.15,-24.47,0,*77
1500667361.67,34413,23.75,74296.0,6.85,-24.11,-24.31,0,*75
1500667362.92,34414,23.75,74298.0,6.85,-24.11,-24.41,0,*75
1500667364.15,34415,23.75,74294.3,6.85,-24.11,-24.31,0,*73
1500667365.39,34416,23.75,74296.8,6.87,-24.15,-24.57,0,*76
1500667366.62,34417,23.75,74292.8,6.85,-24.11,-24.31,0,*71
1500667367.87,34418,23.75,74296.0,6.87,-24.15,-24.57,0,*78
1500667369.12,34419,23.75,74296.5,6.87,-24.15,-24.47,0,*78
1500667370.36,34420,23.75,74296.5,6.87,-24.15,-24.47,0,*72
1500667371.61,34421,23.75,74294.5,6.87,-24.15,-24.47,0,*73
1500667372.84,34422,23.75,74296.8,6.89,-24.05,-24.41,0,*79
1500667374.08,34423,23.75,74296.5,6.91,-24.05,-24.47,0,*77
1500667375.33,34424,23.75,74294.3,6.89,-24.11,-24.41,0,*7A
1500667376.58,34425,23.75,74298.8,6.89,-24.11,-24.41,0,*7B
1500667377.83,34426,23.75,74292.3,6.89,-24.11,-24.41,0,*78
1500667379.08,34427,23.75,74296.0,6.91,-24.15,-24.35,0,*77
1500667380.33,34428,23.75,74296.5,6.91,-24.15,-24.35,0,*78
1500667381.58,34429,23.75,74294.5,6.91,-23.99,-24.35,0,*7A
1500667382.84,34430,23.75,74296.5,6.91,-24.21,-24.35,0,*76
1500667384.1,34431,23.75,74292.8,6.91,-24.21,-24.47,0,*72
1500667385.33,34432,23.75,74296.3,6.91,-24.05,-24.35,0,*72
1500667386.57,34433,23.75,74296.3,6.95,-24.15,-24.35,0,*76
1500667387.79,34434,23.75,74298.8,6.93,-23.99,-24.35,0,*74
1500667388.99,34435,23.75,74296.3,6.93,-24.05,-24.31,0,*73
1500667390.27,34436,23.75,74296.5,6.95,-23.99,-24.25,0,*71
1500667391.52,34437,23.75,74292.0,6.97,-23.99,-24.25,0,*72
1500667392.79,34438,23.75,74294.3,6.95,-23.95,-24.25,0,*73
1500667394.07,34439,23.75,74292.8,6.95,-23.95,-24.25,0,*72
1500667395.32,34440,23.75,74296.5,6.95,-23.89,-24.25,0,*71
1500667396.56,34441,23.75,74292.3,6.99,-23.85,-23.89,0,*71
1500667397.84,34442,23.75,74298.0,6.99,-23.85,-24.21,0,*77
1500667399.11,34443,23.75,74296.8,6.99,-23.95,-24.11,0,*74
1500667400.37,34444,23.75,74294.5,6.99,-23.89,-24.21,0,*7D
1500667401.65,34445,23.75,74292.3,6.99,-23.95,-24.25,0,*75
1500667402.92,34446,23.75,74294.5,6.99,-23.95,-24.25,0,*76
1500667404.13,34447,23.75,74294.8,7.05,-24.05,-24.31,0,*78
1500667405.35,34448,23.75,74294.0,7.05,-24.21,-24.35,0,*75
1500667406.6,34449,23.75,74296.5,7.03,-24.15,-24.35,0,*75
1500667407.8,34450,23.75,74294.5,7.05,-24.05,-24.35,0,*7A
1500667409.02,34451,23.75,74292.5,7.05,-23.99,-24.31,0,*7D
1500667410.27,34452,23.75,74292.0,7.03,-24.21,-24.31,0,*7C
1500667411.5,34453,23.75,74292.0,7.05,-24.15,-24.31,0,*7C
1500667412.7,34454,23.75,74296.5,7.05,-24.05,-24.31,0,*7A
1500667413.9,34455,23.75,74292.0,7.05,-24.05,-24.31,0,*7B
1500667415.13,34456,23.75,74294.0,7.05,-24.21,-24.35,0,*7A
1500667416.38,34457,23.75,74292.8,7.07,-24.41,-24.61,0,*7E
1500667417.65,34458,23.75,74292.5,7.07,-24.47,-24.71,0,*76
1500667418.9,34459,23.75,74292.0,7.07,-24.57,-24.71,0,*76
1500667420.13,34460,23.75,74294.0,7.07,-24.57,-24.77,0,*7A
1500667421.36,34461,23.75,74296.3,7.07,-24.57,-24.77,0,*7B
1500667422.59,34462,23.75,74292.8,7.07,-24.47,-24.61,0,*7E
1500667423.85,34463,23.75,74292.8,7.07,-24.41,-24.61,0,*79
1500667425.11,34464,23.75,74292.8,7.07,-24.41,-24.61,0,*7E
1500667426.39,34465,23.75,74292.0,7.07,-24.41,-24.71,0,*7E
1500667427.65,34466,23.75,74292.0,7.07,-24.41,-24.61,0,*7C
1500667428.85,34467,23.75,74292.0,7.09,-24.47,-24.61,0,*75
1500667430.08,34468,23.75,74292.5,7.07,-24.61,-24.77,0,*77
1500667431.28,34469,23.75,74292.5,7.09,-24.57,-24.77,0,*7D
1500667432.54,34470,23.75,74294.5,7.07,-24.57,-24.71,0,*7D
1500667433.77,34471,23.75,74298.0,7.09,-24.41,-24.61,0,*74
1500667435.02,34472,23.75,74296.5,7.09,-24.25,-24.41,0,*77
1500667436.25,34473,23.75,74294.0,7.09,-24.11,-24.31,0,*76
1500667437.5,34474,23.75,74294.8,7.07,-24.11,-24.31,0,*7F
1500667438.72,34475,23.75,74288.5,7.09,-24.11,-24.31,0,*70
1500667439.97,34476,23.75,74294.0,7.09,-24.15,-24.41,0,*70
1500667441.2,34477,23.75,74294.8,7.09,-24.25,-24.47,0,*74
1500667442.44,34478,23.75,74292.8,7.11,-24.11,-24.35,0,*70
1500667443.72,34479,23.75,74292.8,7.11,-23.95,-24.25,0,*7B
1500667444.97,34480,23.75,74294.0,7.11,-23.79,-24.21,0,*7B
1500667446.17,34481,23.75,74298.5,7.13,-23.89,-24.05,0,*71
1500667447.39,34482,23.75,74296.3,7.13,-23.85,-24.05,0,*7E
1500667448.66,34483,23.75,74296.5,7.15,-23.85,-24.15,0,*78
1500667449.91,34484,23.75,74296.3,7.15,-23.89,-24.15,0,*73
1500667451.14,34485,23.75,74292.8,7.15,-24.05,-24.31,0,*77
1500667452.43,34486,23.75,74292.3,7.15,-23.99,-24.21,0,*77
1500667453.66,34487,23.75,74298.5,7.15,-24.05,-24.31,0,*75
1500667454.93,34488,23.75,74298.0,7.19,-24.11,-24.25,0,*76
1500667456.18,34489,23.75,74292.0,7.19,-24.11,-24.31,0,*72
1500667457.46,34490,23.75,74296.3,7.19,-23.99,-24.25,0,*78
1500667458.7,34491,23.75,74294.8,7.17,-23.99,-24.15,0,*74
1500667459.95,34492,23.75,74292.0,7.17,-23.99,-24.15,0,*77
1500667461.18,34493,23.75,74292.5,7.19,-24.31,-24.47,0,*7A
1500667462.43,34494,23.75,74294.5,7.19,-24.41,-24.57,0,*7B
1500667463.66,34495,23.75,74294.0,7.19,-24.47,-24.77,0,*7E
1500667464.91,34496,23.75,74292.8,7.19,-24.41,-24.61,0,*7C
1500667466.14,34497,23.75,74290.8,7.19,-24.47,-24.61,0,*7B
1500667467.4,34498,23.75,74292.5,7.19,-24.41,-24.61,0,*72
1500667468.65,34499,23.75,74296.0,7.21,-24.11,-24.41,0,*7F
1500667469.91,34500,23.75,74294.0,7.19,-24.25,-24.47,0,*74
1500667471.14,34501,23.75,74294.3,7.21,-24.21,-24.51,0,*7D
1500667472.37,34502,23.75,74292.8,7.21,-24.21,-24.51,0,*7E
1500667473.63,34503,23.75,74290.3,7.21,-24.21,-24.41,0,*7E
1500667474.87,34504,23.75,74294.5,7.21,-24.25,-24.51,0,*7C
1500667476.12,34505,23.75,74294.3,7.21,-24.21,-24.41,0,*78
1500667477.38,34506,23.75,74294.8,7.21,-24.25,-24.41,0,*7F
1500667478.59,34507,23.75,74292.0,7.25,-24.35,-24.61,0,*79
1500667479.82,34508,23.75,74294.5,7.25,-24.61,-24.71,0,*76
1500667481.04,34509,23.75,74294.0,7.25,-24.67,-24.97,0,*79
1500667482.3,34510,23.75,74292.3,7.27,-24.51,-24.83,0,*73
1500667483.55,34511,23.75,74292.5,7.25,-24.67,-24.87,0,*71
1500667484.8,34512,23.75,74292.5,7.25,-24.67,-24.87,0,*72
1500667486.04,34513,23.75,74292.3,7.25,-24.67,-24.87,0,*73
1500667487.27,34514,23.75,74292.8,7.25,-24.51,-24.67,0,*7F
1500667488.5,34515,23.75,74292.5,7.25,-24.61,-24.71,0,*7A
1500667489.75,34516,23.75,74290.5,7.25,-24.67,-24.87,0,*76
1500667491.0,34517,23.75,74294.3,7.27,-24.61,-24.87,0,*73
1500667492.26,34518,23.75,74294.8,7.27,-24.47,-24.71,0,*71
1500667493.49,34519,23.75,74292.5,7.25,-24.47,-24.67,0,*75
1500667494.72,34520,23.75,74292.0,7.25,-24.51,-24.83,0,*72
1500667495.98,34521,23.75,74290.8,7.27,-24.61,-24.71,0,*7F
1500667497.23,34522,23.75,74290.5,7.27,-24.47,-24.67,0,*7F
1500667498.49,34523,23.75,74294.8,7.27,-24.51,-24.71,0,*7E
1500667499.75,34524,23.75,74292.0,7.27,-24.47,-24.71,0,*7E
1500667501.01,34525,23.75,74294.5,7.27,-24.47,-24.71,0,*7F
1500667502.25,34526,23.75,74294.8,7.25,-24.51,-24.71,0,*79
1500667503.5,34527,23.75,74294.0,7.27,-24.51,-24.83,0,*77
1500667504.76,34528,23.75,74292.0,7.27,-24.47,-24.71,0,*72
1500667506.02,34529,23.75,74294.5,7.27,-24.51,-24.83,0,*79
1500667507.27,34530,23.75,74294.5,7.27,-24.51,-24.83,0,*71
1500667508.48,34531,23.75,74294.8,7.29,-24.57,-24.77,0,*73
1500667509.73,34532,23.75,74294.5,7.29,-24.41,-24.67,0,*76
1500667510.96,34533,23.75,74290.3,7.31,-24.47,-24.77,0,*79
1500667512.21,34534,23.75,74292.0,7.31,-24.61,-24.83,0,*71
1500667513.44,34535,23.75,74294.5,7.29,-24.67,-24.93,0,*7E
1500667514.66,34536,23.75,74292.5,7.29,-24.67,-24.93,0,*7D
1500667515.89,34537,23.75,74294.8,7.29,-24.67,-24.93,0,*7C
1500667517.09,34538,23.75,74292.3,7.29,-24.77,-24.93,0,*72
1500667518.3,34539,23.75,74292.8,7.29,-24.47,-24.77,0,*7A
1500667519.53,34540,23.75,74288.8,7.29,-24.57,-24.83,0,*7E
1500667520.76,34541,23.75,74292.0,7.29,-24.57,-24.83,0,*7F
1500667521.99,34542,23.75,74294.5,7.29,-24.61,-24.83,0,*79
1500667523.2,34543,23.75,74290.3,7.29,-24.47,-24.77,0,*77
1500667524.43,34544,23.75,74292.8,7.29,-24.61,-24.83,0,*7F
1500667525.66,34545,23.75,74292.0,7.31,-24.47,-24.77,0,*78
1500667526.86,34546,23.75,74292.8,7.29,-24.57,-24.77,0,*73
1500667528.09,34547,23.75,74292.3,7.29,-24.57,-24.83,0,*79
1500667529.34,34548,23.75,74294.5,7.31,-24.61,-24.83,0,*7A
1500667530.57,34549,23.75,74292.0,7.29,-24.61,-24.83,0,*72
1500667531.79,34550,23.75,74290.8,7.31,-24.77,-24.93,0,*75
1500667533.04,34551,23.75,74294.5,7.29,-24.67,-24.83,0,*7D
1500667534.27,34552,23.75,74292.0,7.29,-24.67,-24.97,0,*7B
1500667535.5,34553,23.75,74290.3,7.29,-24.61,-24.83,0,*79
1500667536.75,34554,23.75,74288.8,7.31,-24.57,-24.83,0,*72
1500667538.0,34555,23.75,74290.5,7.31,-24.61,-24.83,0,*76
1500667539.22,34556,23.75,74292.3,7.29,-24.61,-24.83,0,*7C
1500667540.47,34557,23.75,74292.0,7.31,-24.83,-24.97,0,*7D
1500667541.7,34558,23.75,74290.0,7.29,-24.83,-24.93,0,*7F
1500667542.96,34559,23.75,74290.3,7.31,-24.67,-25.09,0,*7F
1500667544.19,34560,23.75,74290.3,7.33,-24.77,-25.03,0,*7C
1500667545.4,34561,23.75,74290.0,7.33,-24.93,-25.03,0,*77
1500667546.6,34562,23.75,74290.5,7.33,-24.93,-25.09,0,*7E
1500667547.85,34563,23.75,74288.8,7.31,-24.97,-25.29,0,*7B
1500667549.05,34564,23.75,74292.0,7.33,-24.93,-25.09,0,*78
1500667550.26,34565,23.75,74290.5,7.31,-24.93,-25.13,0,*70
1500667551.46,34566,23.75,74292.3,7.29,-24.97,-25.13,0,*7E
1500667552.67,34567,23.75,74288.8,7.29,-24.97,-25.09,0,*74
1500667553.86,34568,23.75,74290.3,7.29,-24.93,-24.97,0,*79
1500667555.07,34569,23.75,74290.8,7.31,-24.93,-25.13,0,*7C
1500667556.33,34570,23.75,74288.3,7.31,-24.83,-24.97,0,*78
1500667557.58,34571,23.75,74292.8,7.31,-24.67,-25.09,0,*75
1500667558.81,34572,23.75,74288.8,7.29,-24.83,-25.09,0,*75
1500667560.01,34573,23.75,74290.8,7.29,-24.93,-25.13,0,*7E
1500667561.21,34574,23.75,74292.0,7.29,-24.93,-25.13,0,*79
1500667562.41,34575,23.75,74290.8,7.29,-24.97,-25.09,0,*77
1500667563.6,34576,23.75,74290.3,7.29,-24.93,-24.97,0,*76
1500667564.83,34577,23.75,74292.3,7.29,-24.67,-24.93,0,*78
1500667566.05,34578,23.75,74294.3,7.31,-24.77,-24.97,0,*7B
1500667567.28,34579,23.75,74290.0,7.33,-24.77,-25.03,0,*74
1500667568.48,34580,23.75,74292.8,7.29,-24.77,-24.97,0,*75
1500667569.72,34581,23.75,74294.0,7.33,-24.87,-25.09,0,*76
1500667570.95,34582,23.75,74294.3,7.29,-24.83,-24.97,0,*7C
1500667572.2,34583,23.75,74294.3,7.31,-24.83,-25.09,0,*72
1500667573.45,34584,23.75,74292.8,7.31,-24.83,-24.97,0,*73
1500667574.72,34585,23.75,74294.5,7.31,-24.67,-24.83,0,*7D
1500667575.94,34586,23.75,74290.5,7.31,-24.93,-25.09,0,*76
1500667577.17,34587,23.75,74294.8,7.29,-25.09,-25.29,0,*7E
1500667578.36,34588,23.75,74292.0,7.33,-25.19,-25.35,0,*76
1500667579.59,34589,23.75,74292.0,7.31,-24.97,-25.23,0,*75
1500667580.79,34590,23.75,74288.5,7.29,-24.61,-24.93,0,*77
1500667582.04,34591,23.75,74288.5,7.31,-24.41,-24.77,0,*77
1500667583.25,34592,23.75,74288.8,7.33,-24.35,-24.61,0,*72
1500667584.46,34593,23.75,74290.0,7.33,-24.35,-24.61,0,*73
1500667585.69,34594,23.75,74288.8,7.33,-24.41,-24.61,0,*77
1500667586.89,34595,23.75,74294.0,7.33,-24.57,-24.77,0,*76
1500667588.12,34596,23.75,74292.3,7.33,-24.77,-24.87,0,*78
1500667589.35,34597,23.75,74292.5,7.33,-24.77,-24.87,0,*79
1500667590.55,34598,23.75,74292.8,7.33,-24.77,-24.93,0,*73
1500667591.79,34599,23.75,74290.3,7.33,-24.71,-24.93,0,*74
1500667593.08,34600,23.75,74292.5,7.35,-24.71,-24.87,0,*74
1500667594.35,34601,23.75,74288.5,7.35,-24.83,-24.87,0,*78
1500667595.55,34602,23.75,74290.8,7.33,-24.93,-25.19,0,*7A
1500667596.8,34603,23.75,74290.0,7.35,-24.83,-24.97,0,*7B
1500667598.05,34604,23.75,74290.5,7.35,-24.57,-24.87,0,*74
1500667599.25,34605,23.75,74290.3,7.33,-24.61,-24.93,0,*73
1500667600.49,34606,23.75,74290.3,7.33,-24.71,-24.93,0,*71
1500667601.77,34607,23.75,74292.3,7.35,-24.83,-24.87,0,*7E
1500667602.99,34608,23.75,74290.0,7.33,-24.87,-25.19,0,*75
1500667604.19,34609,23.75,74290.8,7.33,-24.93,-25.19,0,*71
1500667605.46,34610,23.75,74290.8,7.35,-24.83,-25.03,0,*75
1500667606.75,34611,23.75,74290.8,7.35,-24.71,-25.03,0,*79
1500667607.94,34612,23.75,74292.5,7.33,-24.93,-25.19,0,*7B
1500667609.15,34613,23.75,74290.5,7.33,-24.77,-24.93,0,*73
1500667610.41,34614,23.75,74290.8,7.33,-24.71,-24.87,0,*77
1500667611.61,34615,23.75,74290.3,7.33,-24.77,-24.93,0,*75
1500667612.81,34616,23.75,74288.5,7.33,-24.77,-24.93,0,*76
1500667614.07,34617,23.75,74290.0,7.35,-24.71,-24.93,0,*77
1500667615.32,34618,23.75,74288.5,7.35,-24.87,-24.97,0,*75
1500667616.57,34619,23.75,74290.3,7.35,-24.57,-24.83,0,*7C
1500667617.82,34620,23.75,74290.3,7.35,-24.83,-24.97,0,*7A
1500667619.08,34621,23.75,74290.8,7.35,-24.71,-24.97,0,*76
1500667620.34,34622,23.75,74288.0,7.35,-24.51,-24.83,0,*72
1500667621.59,34623,23.75,74290.3,7.35,-24.57,-24.87,0,*71
1500667622.84,34624,23.75,74288.8,7.35,-24.51,-24.67,0,*7E
1500667624.1,34625,23.75,74288.5,7.35,-24.51,-24.83,0,*75
1500667625.35,34626,23.75,74290.8,7.35,-24.57,-24.87,0,*74
1500667626.63,34627,23.75,74290.3,7.35,-24.67,-24.83,0,*72
1500667627.9,34628,23.75,74292.0,7.35,-24.67,-24.83,0,*7D
1500667629.14,34629,23.75,74290.0,7.33,-24.71,-24.93,0,*7C
1500667630.39,34630,23.75,74288.5,7.35,-24.57,-24.87,0,*73
1500667631.64,34631,23.75,74288.3,7.35,-24.51,-24.83,0,*70
1500667632.9,34632,23.75,74288.8,7.35,-24.51,-24.71,0,*7E
1500667634.17,34633,23.75,74292.5,7.37,-24.71,-24.87,0,*76
1500667635.4,34634,23.75,74290.0,7.37,-24.83,-24.97,0,*7D
1500667636.63,34635,23.75,74288.3,7.37,-24.87,-25.13,0,*75
1500667637.88,34636,23.75,74288.0,7.37,-24.87,-25.03,0,*77
1500667639.1,34637,23.75,74290.3,7.39,-24.77,-24.97,0,*7B
1500667640.36,34638,23.75,74290.8,7.37,-24.83,-25.03,0,*7D
1500667641.62,34639,23.75,74294.3,7.37,-24.71,-25.03,0,*71
1500667642.85,34640,23.75,74288.8,7.39,-24.77,-24.97,0,*7B
1500667644.09,34641,23.75,74292.5,7.37,-24.71,-24.97,0,*72
1500667645.31,34642,23.75,74292.8,7.37,-24.67,-24.97,0,*76
1500667646.54,34643,23.75,74290.3,7.37,-24.83,-24.97,0,*7D
1500667647.77,34644,23.75,74292.8,7.37,-24.67,-24.97,0,*70
1500667649.0,34645,23.75,74290.5,7.37,-24.83,-24.97,0,*7B
1500667650.26,34646,23.75,74292.3,7.39,-24.47,-24.83,0,*7B
1500667651.51,34647,23.75,74290.0,7.39,-24.51,-24.67,0,*77
1500667652.75,34648,23.75,74288.5,7.39,-24.47,-24.77,0,*7E
1500667654.01,34649,23.69,74288.0,7.39,-24.25,-24.47,0,*78
1500667655.28,34650,23.69,74288.5,7.39,-24.11,-24.41,0,*71
1500667656.53,34651,23.75,74290.3,7.39,-24.15,-24.47,0,*72
1500667657.76,34652,23.75,74292.0,7.41,-24.21,-24.47,0,*79
1500667659.01,34653,23.75,74288.5,7.41,-24.21,-24.41,0,*7E
1500667660.26,34654,23.75,74292.3,7.41,-24.21,-24.41,0,*79
1500667661.51,34655,23.75,74288.0,7.43,-24.41,-24.61,0,*7E
1500667662.74,34656,23.69,74290.3,7.43,-24.57,-24.77,0,*7D
1500667663.96,34657,23.75,74288.8,7.41,-24.77,-25.03,0,*7E
1500667665.22,34658,23.75,74292.5,7.43,-24.71,-24.93,0,*7D
1500667666.44,34659,23.69,74290.8,7.41,-24.61,-24.87,0,*7A
1500667667.71,34660,23.75,74294.5,7.47,-24.83,-25.03,0,*77
1500667668.99,34661,23.75,74294.3,7.47,-24.87,-25.03,0,*72
1500667670.24,34662,23.69,74288.8,7.43,-24.77,-25.03,0,*7A
1500667671.49,34663,23.75,74294.3,7.47,-24.83,-25.09,0,*7E
1500667672.77,34664,23.69,74290.8,7.47,-24.83,-25.03,0,*73
1500667674.01,34665,23.69,74290.5,7.43,-25.03,-25.19,0,*74
1500667675.26,34666,23.75,74290.3,7.43,-25.03,-25.23,0,*7E
1500667676.53,34667,23.75,74292.8,7.43,-24.87,-25.03,0,*70
1500667677.75,34668,23.75,74290.8,7.43,-24.93,-25.09,0,*70
1500667679.0,34669,23.75,74294.3,7.43,-24.87,-25.09,0,*74
1500667680.24,34670,23.75,74290.8,7.43,-24.87,-25.19,0,*7D
1500667681.46,34671,23.75,74292.5,7.41,-24.87,-25.19,0,*7E
1500667682.68,34672,23.75,74294.0,7.41,-25.03,-25.19,0,*70
1500667683.9,34673,23.75,74290.5,7.43,-24.93,-25.23,0,*72
1500667685.12,34674,23.75,74288.8,7.41,-25.03,-25.23,0,*7F
1500667686.37,34675,23.75,74292.0,7.43,-24.77,-25.03,0,*7C
1500667687.59,34676,23.75,74290.8,7.41,-25.03,-25.23,0,*7D
1500667688.78,34677,23.69,74288.5,7.41,-25.09,-25.35,0,*71
1500667690.0,34678,23.75,74292.8,7.43,-25.09,-25.39,0,*70
1500667691.22,34679,23.69,74288.8,7.43,-25.19,-25.35,0,*7C
1500667692.44,34680,23.69,74290.3,7.41,-25.09,-25.45,0,*7E
1500667693.68,34681,23.69,74288.5,7.43,-25.19,-25.45,0,*7C
1500667694.87,34682,23.75,74294.8,7.41,-25.09,-25.35,0,*7B
1500667696.09,34683,23.75,74294.5,7.43,-25.19,-25.39,0,*75
1500667697.28,34684,23.75,74294.5,7.41,-25.09,-25.35,0,*7D
1500667698.5,34685,23.75,74292.5,7.41,-25.03,-25.19,0,*78
1500667699.72,34686,23.69,74292.3,7.41,-24.87,-25.19,0,*76
1500667700.94,34687,23.75,74294.0,7.41,-25.03,-25.23,0,*73
1500667702.16,34688,23.75,74292.0,7.41,-25.03,-25.35,0,*7B
1500667703.38,34689,23.69,74290.8,7.41,-25.03,-25.19,0,*74